STARLINK-30905, 58356

Orbit data source: Space-Track

STARLINK-30905, 58356 is a payload satellite owned by SpaceX/Seattle (US) in LEO that was launched on Sat, 18 Nov 2023 UTC via an FALCON 9 launch vehicle from the Air Force Eastern Test Range (AFETR). Payload-class satellites include a variety of spacecraft equipped with specific instruments for various scientific and technological missions. These include communications satellites like Starlink; space stations such as the ISS; scientific satellites like the Hubble; Earth observation satellites from companies like Planet Labs, Umbra, and HawkEye 360; GPS; miniature CubeSats for education and research; and military/defense satellites.

Loading next visibility...
Identifier
58356, 2023-177F
Orbit
LEO
Country
Flag of USUS
Related business
Manufacturer
SpaceX/Seattle
Mission
Operational Commercial Communications
Bus & Motor
STARLINK V2M, Unknown motor
Mass
730 kg wet, ~700 kg dry
Launch date (UTC)
2023-11-18 (3 years ago)
Launch vehicle
FALCON 9
Launch site
Air Force Eastern Test Range (AFETR)
Object type
Payload
Rocket body
Debris
Shape & HBR
Box + 2 Pan, 17.7 m
Radar Cross Section
33.884 m², Large (>1 m²)

Expand to show TLE details & history
Last TLE update: 2 days ago

TLE from 2 days ago
0 STARLINK-30905
1 58356U 23177F   26171.24433568  .00000095  00000-0  12984-4 0  9991
2 58356  43.0018 131.2435 0001229 269.0908  90.9803 15.27573095143856
Epoch: 2026-06-20T05:51Z
TLE epoch observation values (Epoch: 2026-06-20T05:51:50.602Z)
Latitude
-0.00002°
Longitude
134.8209°
Altitude
482.86 km
Speed
7.626 km/s
True Right ascension
08h 44m 58s
True Declination
0° 00' 00"
Sunlit
Object was in daylight at epoch
Visualization orbit readout
Latitude
Unknown
Longitude
Unknown
Altitude
Unknown
Speed
Unknown
Apparent Right ascension
Unknown
Apparent Declination
Unknown
Sunlit
N/A
Visualization observer readout
Local Sidereal Time
21:26:02
Azimuth
Unknown
Elevation
Unknown
Doppler factor
Unknown
Orbital elements
Apogee altitude
485.858 km
Perigee altitude
484.171 km
Semi-major axis
6,863.152 km
Eccentricity
0.00012
Inclination
43.0018°
RAAN
131.2435°
Arg. of periapsis
269.0908°
True anomaly
90.99438°
Mean anomaly
90.9803°
Eccentric anomaly
90.98734°
Mean motion
3.81731 °/min
Orbital period
94.31 mins
BSTAR
0.000012984
Loading maneuver chart data...
Computing Atmospheric mass density...
Loading historical data...
Loading historical data...
Loading historical data...
Loading historical data...
Loading historical data...
Loading historical data...
Loading historical data...

Documentation

Showing up to 5 results
|